Hourly Data Report for October 14, 2015

All times are specified in Local Standard Time (LST). Add 1 hour to adjust for Daylight Saving Time where and when it is observed.

KAMLOOPS A
BRITISH COLUMBIA

50°42'09.000" N
120°26'55.000" W
345.30 m
1163781
71887
YKA

Download Data

Hourly Data (October 2015)
Hourly Data Report for October 14, 2015
Temp Definition
°C
Dew Point Temp Definition
°C
Rel Hum Definition
%
Wind Dir Definition
10's deg

Wind Spd Definition
km/h
Visibility Definition
km
Stn Press Definition
kPa
Hmdx Definition


Wind Chill Definition


Weather Definition


TIME
00:00 Legend Double Dagger 4.1 0.3 76 5 4 64.4 98.38     LegendNANA
01:00 Legend Double Dagger 3.6 0.1 78 36 2 64.4 98.42     Clear
02:00 Legend Double Dagger 2.7 -0.9 77 1 4 64.4 98.48     LegendNANA
03:00 Legend Double Dagger 3.4 0.3 80 9 5 64.4 98.52     LegendNANA
04:00 Legend Double Dagger 3.5 -0.2 77 32 4 64.4 98.55     Clear
05:00 Legend Double Dagger 2.0 -0.1 86 9 7 64.4 98.61     LegendNANA
06:00 Legend Double Dagger 1.8 -0.6 84 7 5 64.4 98.63     LegendNANA
07:00 Legend Double Dagger 0.6 -1.3 87 9 5 64.4 98.69     Clear
08:00 Legend Double Dagger 4.5 1.4 80 12 7 64.4 98.71     LegendNANA
09:00 Legend Double Dagger 6.4 1.5 71 11 5 64.4 98.79     LegendNANA
10:00 Legend Double Dagger 8.4 1.8 63 34 4 64.4 98.79     Mainly Clear
11:00 Legend Double Dagger 10.1 1.5 55 16 7 64.4 98.73     LegendNANA
12:00 Legend Double Dagger 11.5 2.6 54 17 7 64.4 98.64     LegendNANA
13:00 Legend Double Dagger 13.0 2.0 47 17 7 64.4 98.59     Mainly Clear
14:00 Legend Double Dagger 14.9 0.8 38 18 5 64.4 98.50     LegendNANA
15:00 Legend Double Dagger 16.0 1.4 37 11 5 64.4 98.46     LegendNANA
16:00 Legend Double Dagger 15.9 0.6 35 13 5 64.4 98.42     Mainly Clear
17:00 Legend Double Dagger 12.4 1.2 46 11 7 64.4 98.40     LegendNANA
18:00 Legend Double Dagger 10.1 0.2 50 36 2 64.4 98.48     LegendNANA
19:00 Legend Double Dagger 9.4 0.6 54 11 8 64.4 98.54     Clear
20:00 Legend Double Dagger 8.1 1.1 61 11 14 64.4 98.58     LegendNANA
21:00 Legend Double Dagger 8.5 0.5 57 4 7 64.4 98.63     LegendNANA
22:00 Legend Double Dagger 6.8 0.3 63 10 3 64.4 98.67     Clear
23:00 Legend Double Dagger 6.0 0.1 66 13 4 64.4 98.74     LegendNANA

Notes on Data Quality.

Legend

  • E = Estimated
  • M = Missing
  • NA = Not Available
  • ‡ = Partner data that is not subject to review by the National Climate Archives
Date modified: